Location: Asheville, NC
(35.6000°N, 82.5500°W)
Time: 04:55:12
(UTC-05:00)

Vanguard 2 - Visible Passes

Search period start: 20 February 2018 00:00
Search period end: 02 March 2018 00:00
Orbit: 553 x 2939 km, 32.9° (Epoch: 19 February)

Date Brightness Start Highest point End Pass type
(mag) Time Alt. Az. Time Alt. Az. Time Alt. Az.
20 Feb 8.0 20:01:32 10° W 20:10:15 72° S 20:11:45 51° ESE visible
20 Feb 10.6 22:13:00 10° W 22:13:11 11° W 22:13:11 11° W visible
21 Feb 7.9 20:19:52 10° W 20:28:20 69° S 20:28:58 64° SSE visible
22 Feb 9.0 18:25:35 10° WSW 18:37:17 71° S 18:44:04 10° E visible
22 Feb 8.1 20:38:13 10° W 20:46:11 62° SSW 20:46:11 62° SSW visible
23 Feb 8.9 18:43:56 10° W 18:55:26 75° S 19:01:57 11° E visible
23 Feb 8.6 20:56:34 10° W 21:03:23 48° SW 21:03:23 48° SW visible
24 Feb 8.8 19:02:20 10° W 19:13:34 75° S 19:19:11 15° E visible
24 Feb 9.2 21:14:58 10° W 21:20:38 36° WSW 21:20:38 36° WSW visible
25 Feb 8.7 19:20:45 10° W 19:31:41 71° S 19:36:25 21° ESE visible
25 Feb 9.7 21:33:29 10° W 21:37:52 26° WSW 21:37:52 26° WSW visible
26 Feb 8.8 19:39:10 10° W 19:49:44 64° SSW 19:53:41 26° ESE visible
26 Feb 10.2 21:52:14 10° W 21:55:07 18° WSW 21:55:07 18° WSW visible
27 Feb 8.9 19:57:36 10° W 20:07:41 54° SSW 20:10:57 30° SE visible
27 Feb 10.6 22:11:33 10° WSW 22:12:24 12° WSW 22:12:24 12° WSW visible
28 Feb 9.1 20:16:04 10° W 20:25:32 44° SSW 20:28:16 31° SSE visible
01 Mar 9.4 20:34:40 10° W 20:43:13 33° SW 20:45:36 27° S visible
